Location: Kikino
(54.4440°N, 112.0940°W)
Time: 10:50:33
(UTC+00:00)

A-11 Canister half - All Passes

Search period start: 19 May 2024 00:00
Search period end: 29 May 2024 00:00
Orbit: 1525 x 1683 km, 47.3° (Epoch: 18 May)

Date Brightness Start Highest point End Pass type
(mag) Time Alt. Az. Time Alt. Az. Time Alt. Az.
19 May - 04:06:55 10° S 04:12:52 19° SE 04:18:56 10° E visible
19 May - 06:07:07 10° SW 06:15:49 43° SSE 06:24:48 10° E visible
19 May - 08:10:29 10° WSW 08:19:48 58° S 08:29:26 10° ESE visible
19 May - 10:14:47 10° W 10:23:55 47° SSW 10:33:18 10° SE visible
19 May - 12:20:01 10° W 12:27:15 24° SW 12:34:37 10° S daylight
20 May - 03:45:33 10° SSE 03:51:14 18° SE 03:57:00 10° E daylight
20 May - 05:45:30 10° SW 05:54:07 42° SSE 06:03:01 10° E visible
20 May - 07:48:46 10° WSW 07:58:04 58° S 08:07:40 10° ESE visible
20 May - 09:53:03 10° W 10:02:12 48° SSW 10:11:36 10° SE visible
20 May - 11:58:11 10° W 12:05:34 25° SW 12:13:06 10° S daylight
21 May - 03:24:13 10° SSE 03:29:36 17° SE 03:35:03 10° E daylight
21 May - 05:23:52 10° SW 05:32:26 40° SSE 05:41:14 10° E visible
21 May - 07:27:04 10° WSW 07:36:20 57° S 07:45:54 10° E visible
21 May - 09:31:20 10° W 09:40:28 49° SSW 09:49:53 10° SE visible
21 May - 11:36:22 10° W 11:43:53 26° SW 11:51:33 10° S daylight
22 May - 03:02:56 10° SSE 03:07:58 16° SE 03:13:04 10° E daylight
22 May - 05:02:16 10° SW 05:10:44 39° SSE 05:19:27 10° E visible
22 May - 07:05:22 10° WSW 07:14:35 57° S 07:24:08 10° E visible
22 May - 09:09:36 10° W 09:18:45 50° SSW 09:28:10 10° SE visible
22 May - 11:14:34 10° W 11:22:13 27° SW 11:30:01 10° S daylight
23 May - 02:41:41 10° SSE 02:46:20 15° SE 02:51:03 10° E daylight
23 May - 04:40:40 10° SSW 04:49:03 38° SSE 04:57:39 10° E visible
23 May - 06:43:41 10° WSW 06:52:52 57° S 07:02:23 10° E visible
23 May - 08:47:52 10° W 08:57:01 51° SSW 09:06:27 10° SE visible
23 May - 10:52:46 10° W 11:00:32 28° SW 11:08:27 10° SSE daylight
24 May - 02:20:30 10° SSE 02:24:43 14° SE 02:28:59 10° E daylight
24 May - 04:19:04 10° SSW 04:27:22 37° SSE 04:35:53 10° E visible
24 May - 06:21:59 10° WSW 06:31:08 56° S 06:40:36 10° E visible
24 May - 08:26:09 10° W 08:35:17 51° SSW 08:44:44 10° SE visible
24 May - 10:30:59 10° W 10:38:50 29° SW 10:46:53 10° SSE daylight
25 May - 01:59:22 10° SSE 02:03:06 13° SE 02:06:51 10° ESE daylight
25 May - 03:57:29 10° SSW 04:05:40 36° SSE 04:14:05 10° E daylight
25 May - 06:00:17 10° WSW 06:09:25 56° S 06:18:50 10° E visible
25 May - 08:04:25 10° W 08:13:34 52° SSW 08:23:01 10° ESE visible
25 May - 10:09:12 10° W 10:17:10 30° SW 10:25:18 10° SSE visible
26 May - 01:38:22 10° SE 01:41:29 12° SE 01:44:38 10° ESE daylight
26 May - 03:35:54 10° SSW 03:44:00 35° SSE 03:52:17 10° E daylight
26 May - 05:38:37 10° WSW 05:47:42 55° S 05:57:05 10° E visible
26 May - 07:42:42 10° W 07:51:50 53° SSW 08:01:17 10° ESE visible
26 May - 09:47:26 10° W 09:55:28 31° SW 10:03:43 10° SSE visible
27 May - 01:17:31 10° SE 01:19:52 11° SE 01:22:14 10° ESE daylight
27 May - 03:14:19 10° SSW 03:22:19 33° SE 03:30:30 10° E daylight
27 May - 05:16:55 10° WSW 05:25:58 54° S 05:35:19 10° E visible
27 May - 07:20:59 10° W 07:30:07 53° SSW 07:39:33 10° ESE visible
27 May - 09:25:40 10° W 09:33:47 32° SW 09:42:06 10° SSE visible
27 May - 11:35:11 10° WSW 11:36:17 10° WSW 11:37:21 10° SW daylight
28 May - 00:57:13 10° SE 00:58:16 10° ESE 00:59:19 10° ESE daylight
28 May - 02:52:45 10° SSW 03:00:39 32° SE 03:08:42 10° E daylight
28 May - 04:55:14 10° WSW 05:04:15 54° SSE 05:13:32 10° E visible
28 May - 06:59:16 10° W 07:08:23 54° SSW 07:17:49 10° ESE visible
28 May - 09:03:54 10° W 09:12:06 33° SW 09:20:29 10° SSE visible
28 May - 11:12:18 10° WSW 11:14:39 11° WSW 11:17:01 10° SW daylight
